| time (UTC) | temp F | wind direction | speed MPH | gust MPH | rain 1hr in | rain 24hr in | rain mn in | humidity % | barometer mb |
| 20260504050738 | 43 | 42 | 0.0 | 0.0 | 0.00 | 0.00 | 0.00 | 76 | 1006.9 |
| 20260504050235 | 43 | 47 | 0.0 | 0.0 | 0.00 | 0.00 | 0.00 | 75 | 1006.6 |
| 20260504045732 | 43 | 47 | 0.0 | 0.0 | 0.00 | 0.00 | 0.00 | 74 | 1006.6 |
| 20260504045227 | 44 | 47 | 0.0 | 0.0 | 0.00 | 0.00 | 0.00 | 74 | 1007.2 |
| 20260504044725 | 44 | 47 | 0.0 | 0.0 | 0.00 | 0.00 | 0.00 | 72 | 1006.9 |
| 20260504044222 | 44 | 45 | 0.0 | 0.0 | 0.00 | 0.00 | 0.00 | 72 | 1007.1 |
| 20260504043720 | 44 | 45 | 0.0 | 0.0 | 0.00 | 0.00 | 0.00 | 72 | 1007.2 |
| 20260504043216 | 44 | 42 | 0.0 | 1.0 | 0.00 | 0.00 | 0.00 | 71 | 1007.4 |
| 20260504042714 | 45 | 44 | 0.0 | 0.0 | 0.00 | 0.00 | 0.00 | 70 | 1007.2 |
| 20260504042210 | 45 | 43 | 0.0 | 1.0 | 0.00 | 0.00 | 0.00 | 69 | 1007.4 |
| 20260504041706 | 45 | 32 | 1.0 | 1.0 | 0.00 | 0.00 | 0.00 | 68 | 1007.5 |
| 20260504041202 | 45 | 37 | 0.0 | 0.0 | 0.00 | 0.00 | 0.00 | 68 | 1007.7 |
| 20260504040659 | 45 | 33 | 1.0 | 1.0 | 0.00 | 0.00 | 0.00 | 67 | 1007.6 |
| 20260504040156 | 45 | 23 | 1.0 | 1.0 | 0.00 | 0.00 | 0.00 | 66 | 1007.5 |
| 20260504035652 | 45 | 4 | 1.0 | 2.0 | 0.00 | 0.00 | 0.00 | 66 | 1007.8 |
| 20260504035150 | 45 | 25 | 1.0 | 1.0 | 0.00 | 0.00 | 0.00 | 66 | 1007.6 |
| 20260504034647 | 46 | 332 | 2.0 | 2.0 | 0.00 | 0.00 | 0.00 | 66 | 1007.6 |
| 20260504034144 | 45 | 327 | 2.0 | 2.0 | 0.00 | 0.00 | 0.00 | 65 | 1007.4 |
| 20260504033642 | 45 | 22 | 1.0 | 1.0 | 0.00 | 0.00 | 0.00 | 66 | 1007.6 |
| 20260504033139 | 45 | 342 | 2.0 | 2.0 | 0.00 | 0.00 | 0.00 | 67 | 1007.5 |
| 20260504032635 | 45 | 351 | 1.0 | 2.0 | 0.00 | 0.00 | 0.00 | 66 | 1007.6 |
| 20260504032132 | 45 | 24 | 1.0 | 1.0 | 0.00 | 0.00 | 0.00 | 67 | 1007.4 |
| 20260504031630 | 45 | 10 | 1.0 | 1.0 | 0.00 | 0.00 | 0.00 | 66 | 1007.4 |
| 20260504031126 | 45 | 23 | 0.0 | 1.0 | 0.00 | 0.00 | 0.00 | 66 | 1007.4 |
| 20260504030623 | 45 | 45 | 0.0 | 0.0 | 0.00 | 0.00 | 0.00 | 66 | 1007.3 |
| 20260504030119 | 44 | 35 | 1.0 | 1.0 | 0.00 | 0.00 | 0.00 | 68 | 1007.2 |
| 20260504025616 | 44 | 22 | 1.0 | 1.0 | 0.00 | 0.00 | 0.00 | 67 | 1007.2 |
| 20260504025113 | 43 | 19 | 1.0 | 1.0 | 0.00 | 0.00 | 0.00 | 72 | 1007.1 |
| 20260504024611 | 41 | 31 | 1.0 | 2.0 | 0.00 | 0.00 | 0.00 | 76 | 1007.0 |
| 20260504024107 | 39 | 50 | 0.0 | 0.0 | 0.00 | 0.00 | 0.00 | 80 | 1007.3 |
| 20260504023603 | 39 | 51 | 0.0 | 0.0 | 0.00 | 0.00 | 0.00 | 80 | 1007.0 |
| 20260504023059 | 38 | 51 | 0.0 | 0.0 | 0.00 | 0.00 | 0.00 | 80 | 1007.2 |
| 20260504022556 | 38 | 51 | 0.0 | 0.0 | 0.00 | 0.00 | 0.00 | 79 | 1007.2 |
| 20260504022052 | 38 | 51 | 0.0 | 0.0 | 0.00 | 0.00 | 0.00 | 78 | 1007.1 |
| 20260504021550 | 39 | 51 | 0.0 | 0.0 | 0.00 | 0.00 | 0.00 | 77 | 1007.3 |
| 20260504021046 | 39 | 51 | 0.0 | 0.0 | 0.00 | 0.00 | 0.00 | 77 | 1007.1 |
| 20260504020543 | 39 | 51 | 0.0 | 0.0 | 0.00 | 0.00 | 0.00 | 76 | 1007.1 |
| 20260504020040 | 40 | 51 | 0.0 | 0.0 | 0.00 | 0.00 | 0.00 | 75 | 1007.0 |
| 20260504015536 | 41 | 51 | 0.0 | 0.0 | 0.00 | 0.00 | 0.00 | 73 | 1007.1 |
| 20260504015032 | 42 | 51 | 0.0 | 0.0 | 0.00 | 0.00 | 0.00 | 71 | 1007.0 |
| 20260504014529 | 43 | 51 | 0.0 | 0.0 | 0.00 | 0.00 | 0.00 | 69 | 1007.2 |
| 20260504014026 | 44 | 53 | 0.0 | 0.0 | 0.00 | 0.00 | 0.00 | 64 | 1007.1 |
| 20260504013524 | 44 | 13 | 1.0 | 2.0 | 0.00 | 0.00 | 0.00 | 62 | 1007.1 |
| 20260504013020 | 44 | 20 | 1.0 | 1.0 | 0.00 | 0.00 | 0.00 | 63 | 1007.1 |
| 20260504012518 | 45 | 40 | 0.0 | 0.0 | 0.00 | 0.00 | 0.00 | 63 | 1007.1 |
| 20260504012016 | 46 | 31 | 1.0 | 1.0 | 0.00 | 0.00 | 0.00 | 60 | 1007.3 |
| 20260504011512 | 46 | 20 | 2.0 | 2.0 | 0.00 | 0.00 | 0.00 | 60 | 1007.1 |
| 20260504011008 | 46 | 349 | 1.0 | 2.0 | 0.00 | 0.00 | 0.00 | 59 | 1007.0 |
| 20260504010504 | 46 | 350 | 1.0 | 2.0 | 0.00 | 0.00 | 0.00 | 59 | 1006.6 |
| 20260504010000 | 46 | 350 | 2.0 | 2.0 | 0.00 | 0.00 | 0.00 | 59 | 1006.7 |
| 20260504005457 | 46 | 327 | 2.0 | 2.0 | 0.00 | 0.00 | 0.00 | 59 | 1006.6 |
| 20260504004954 | 46 | 5 | 2.0 | 2.0 | 0.00 | 0.00 | 0.00 | 58 | 1006.9 |
| 20260504004452 | 47 | 29 | 1.0 | 2.0 | 0.00 | 0.00 | 0.00 | 58 | 1006.6 |
| 20260504003949 | 47 | 33 | 1.0 | 1.0 | 0.00 | 0.00 | 0.00 | 57 | 1006.5 |
| 20260504003445 | 47 | 14 | 2.0 | 2.0 | 0.00 | 0.00 | 0.00 | 56 | 1006.6 |
| 20260504002942 | 48 | 332 | 2.0 | 2.0 | 0.00 | 0.00 | 0.00 | 55 | 1006.6 |
| 20260504002439 | 48 | 301 | 3.0 | 3.0 | 0.00 | 0.00 | 0.00 | 54 | 1006.5 |
| 20260504001936 | 48 | 297 | 3.0 | 3.0 | 0.00 | 0.00 | 0.00 | 54 | 1006.5 |
| 20260504001433 | 48 | 299 | 3.0 | 3.0 | 0.00 | 0.00 | 0.00 | 53 | 1006.5 |
| 20260504000930 | 48 | 249 | 2.0 | 2.0 | 0.00 | 0.00 | 0.00 | 53 | 1006.4 |
| 20260504000427 | 49 | 309 | 3.0 | 3.0 | 0.00 | 0.00 | 0.00 | 52 | 1006.4 |
| 20260503235924 | 49 | 310 | 4.0 | 6.0 | 0.00 | 0.00 | 0.00 | 51 | 1006.2 |
| 20260503235422 | 48 | 266 | 2.0 | 2.0 | 0.00 | 0.00 | 0.00 | 49 | 1006.2 |
| 20260503234919 | 49 | 28 | 2.0 | 2.0 | 0.00 | 0.00 | 0.00 | 48 | 1006.4 |
| 20260503234417 | 49 | 307 | 3.0 | 3.0 | 0.00 | 0.00 | 0.00 | 49 | 1006.3 |
| 20260503233914 | 49 | 329 | 3.0 | 3.0 | 0.00 | 0.00 | 0.00 | 48 | 1006.5 |
| 20260503233411 | 49 | 351 | 2.0 | 2.0 | 0.00 | 0.00 | 0.00 | 47 | 1006.0 |
| 20260503232907 | 49 | 11 | 2.0 | 2.0 | 0.00 | 0.00 | 0.00 | 47 | 1006.1 |
| 20260503232405 | 49 | 326 | 2.0 | 2.0 | 0.00 | 0.00 | 0.00 | 46 | 1006.1 |
| 20260503231902 | 50 | 10 | 2.0 | 2.0 | 0.00 | 0.00 | 0.00 | 46 | 1005.8 |
| 20260503231359 | 50 | 309 | 3.0 | 3.0 | 0.00 | 0.00 | 0.00 | 45 | 1006.0 |
| 20260503230855 | 50 | 305 | 2.0 | 2.0 | 0.00 | 0.00 | 0.00 | 45 | 1005.9 |
| 20260503230352 | 50 | 356 | 3.0 | 6.0 | 0.00 | 0.00 | 0.00 | 44 | 1005.7 |
| 20260503225850 | 51 | 289 | 4.0 | 5.0 | 0.00 | 0.00 | 0.00 | 43 | 1005.9 |
| 20260503225345 | 51 | 295 | 5.0 | 7.0 | 0.00 | 0.00 | 0.00 | 43 | 1005.7 |
| 20260503224842 | 51 | 296 | 5.0 | 6.0 | 0.00 | 0.00 | 0.00 | 43 | 1005.5 |
| 20260503224339 | 51 | 328 | 4.0 | 7.0 | 0.00 | 0.00 | 0.00 | 42 | 1005.6 |
| 20260503223837 | 51 | 275 | 3.0 | 5.0 | 0.00 | 0.00 | 0.00 | 42 | 1005.4 |
| 20260503223335 | 51 | 311 | 4.0 | 5.0 | 0.00 | 0.00 | 0.00 | 42 | 1005.6 |
| 20260503222830 | 51 | 39 | 3.0 | 3.0 | 0.00 | 0.00 | 0.00 | 41 | 1005.4 |
| 20260503222329 | 51 | 298 | 3.0 | 3.0 | 0.00 | 0.00 | 0.00 | 39 | 1005.5 |
| 20260503221826 | 51 | 307 | 5.0 | 6.0 | 0.00 | 0.00 | 0.00 | 38 | 1005.7 |
| 20260503221325 | 51 | 152 | 4.0 | 6.0 | 0.00 | 0.00 | 0.00 | 38 | 1005.4 |
| 20260503220820 | 51 | 333 | 3.0 | 3.0 | 0.00 | 0.00 | 0.00 | 38 | 1005.4 |
| 20260503220318 | 52 | 311 | 4.0 | 7.0 | 0.00 | 0.00 | 0.00 | 36 | 1005.3 |
| 20260503215814 | 52 | 282 | 6.0 | 8.0 | 0.00 | 0.00 | 0.00 | 36 | 1005.5 |
| 20260503215312 | 52 | 313 | 4.0 | 5.0 | 0.00 | 0.00 | 0.00 | 36 | 1005.2 |
| 20260503214809 | 52 | 305 | 3.0 | 8.0 | 0.00 | 0.00 | 0.00 | 36 | 1005.2 |
| 20260503214306 | 52 | 310 | 4.0 | 7.0 | 0.00 | 0.00 | 0.00 | 35 | 1005.4 |
| 20260503213804 | 52 | 15 | 5.0 | 7.0 | 0.00 | 0.00 | 0.00 | 35 | 1005.3 |
| 20260503213301 | 53 | 340 | 3.0 | 5.0 | 0.00 | 0.00 | 0.00 | 34 | 1005.5 |
| 20260503212758 | 53 | 304 | 3.0 | 5.0 | 0.00 | 0.00 | 0.00 | 34 | 1005.3 |
| 20260503212256 | 53 | 41 | 4.0 | 7.0 | 0.00 | 0.00 | 0.00 | 34 | 1005.3 |
| 20260503211753 | 52 | 261 | 5.0 | 6.0 | 0.00 | 0.00 | 0.00 | 35 | 1005.4 |
| 20260503211249 | 52 | 317 | 5.0 | 5.0 | 0.00 | 0.00 | 0.00 | 33 | 1005.3 |
| 20260503210744 | 53 | 330 | 5.0 | 7.0 | 0.00 | 0.00 | 0.00 | 33 | 1005.4 |
| 20260503210242 | 52 | 347 | 2.0 | 2.0 | 0.00 | 0.00 | 0.00 | 34 | 1005.2 |
| 20260503205742 | 52 | 335 | 5.0 | 6.0 | 0.00 | 0.00 | 0.00 | 33 | 1005.5 |
| 20260503205239 | 53 | 332 | 3.0 | 5.0 | 0.00 | 0.00 | 0.00 | 34 | 1005.4 |
| 20260503204735 | 53 | 348 | 2.0 | 2.0 | 0.00 | 0.00 | 0.00 | 36 | 1005.4 |
| 20260503204233 | 54 | 4 | 2.0 | 2.0 | 0.00 | 0.00 | 0.00 | 35 | 1005.4 |
| 20260503203730 | 53 | 13 | 3.0 | 5.0 | 0.00 | 0.00 | 0.00 | 38 | 1005.7 |
| 20260503203228 | 52 | 314 | 3.0 | 5.0 | 0.00 | 0.00 | 0.00 | 35 | 1005.5 |
| 20260503202725 | 53 | 306 | 5.0 | 6.0 | 0.00 | 0.00 | 0.00 | 36 | 1005.4 |
| 20260503202223 | 54 | 338 | 6.0 | 7.0 | 0.00 | 0.00 | 0.00 | 35 | 1005.5 |
| 20260503201720 | 54 | 329 | 4.0 | 5.0 | 0.00 | 0.00 | 0.00 | 35 | 1005.6 |
| 20260503201218 | 53 | 339 | 2.0 | 2.0 | 0.00 | 0.00 | 0.00 | 35 | 1005.9 |
| 20260503200714 | 53 | 284 | 1.0 | 2.0 | 0.00 | 0.00 | 0.00 | 36 | 1005.7 |
| 20260503200210 | 53 | 290 | 4.0 | 5.0 | 0.00 | 0.00 | 0.00 | 37 | 1005.7 |
| 20260503195707 | 53 | 328 | 6.0 | 8.0 | 0.00 | 0.00 | 0.00 | 35 | 1005.9 |
| 20260503195204 | 53 | 330 | 6.0 | 8.0 | 0.00 | 0.00 | 0.00 | 36 | 1005.8 |
| 20260503194701 | 53 | 324 | 3.0 | 3.0 | 0.00 | 0.00 | 0.00 | 36 | 1006.0 |
| 20260503194156 | 52 | 322 | 4.0 | 6.0 | 0.00 | 0.00 | 0.00 | 37 | 1006.0 |
| 20260503193653 | 53 | 291 | 3.0 | 3.0 | 0.00 | 0.00 | 0.00 | 37 | 1006.1 |
| 20260503193149 | 53 | 328 | 4.0 | 5.0 | 0.00 | 0.00 | 0.00 | 39 | 1005.8 |
| 20260503192645 | 54 | 337 | 3.0 | 5.0 | 0.00 | 0.00 | 0.00 | 38 | 1006.0 |
| 20260503192141 | 53 | 335 | 3.0 | 5.0 | 0.00 | 0.00 | 0.00 | 40 | 1005.9 |
| 20260503191638 | 51 | 349 | 2.0 | 2.0 | 0.00 | 0.00 | 0.00 | 41 | 1006.2 |
| 20260503191135 | 51 | 334 | 3.0 | 3.0 | 0.00 | 0.00 | 0.00 | 42 | 1006.2 |
| 20260503190632 | 52 | 327 | 6.0 | 8.0 | 0.00 | 0.00 | 0.00 | 41 | 1006.4 |
| 20260503190129 | 50 | 15 | 2.0 | 2.0 | 0.00 | 0.00 | 0.00 | 42 | 1006.3 |
| 20260503185625 | 50 | 325 | 3.0 | 5.0 | 0.00 | 0.00 | 0.00 | 42 | 1006.5 |
| 20260503185120 | 50 | 10 | 3.0 | 3.0 | 0.00 | 0.00 | 0.00 | 43 | 1006.3 |
| 20260503184615 | 51 | 323 | 5.0 | 7.0 | 0.00 | 0.00 | 0.00 | 42 | 1006.6 |
| 20260503184112 | 51 | 296 | 5.0 | 6.0 | 0.00 | 0.00 | 0.00 | 41 | 1006.6 |
| 20260503183609 | 53 | 311 | 5.0 | 7.0 | 0.00 | 0.00 | 0.00 | 41 | 1006.6 |
| 20260503183106 | 50 | 239 | 3.0 | 5.0 | 0.00 | 0.00 | 0.00 | 43 | 1006.7 |
| 20260503182605 | 51 | 290 | 3.0 | 3.0 | 0.00 | 0.00 | 0.00 | 42 | 1006.6 |
| 20260503182102 | 51 | 292 | 3.0 | 5.0 | 0.00 | 0.00 | 0.00 | 42 | 1006.5 |
| 20260503181559 | 51 | 290 | 5.0 | 8.0 | 0.00 | 0.00 | 0.00 | 43 | 1006.9 |
| 20260503181055 | 51 | 309 | 4.0 | 5.0 | 0.00 | 0.00 | 0.00 | 43 | 1006.7 |
| 20260503180553 | 51 | 317 | 2.0 | 3.0 | 0.00 | 0.00 | 0.00 | 47 | 1006.9 |
| 20260503180050 | 50 | 5 | 3.0 | 3.0 | 0.00 | 0.00 | 0.00 | 45 | 1007.0 |
| 20260503175547 | 49 | 310 | 3.0 | 5.0 | 0.00 | 0.00 | 0.00 | 44 | 1007.0 |
| 20260503175044 | 49 | 313 | 4.0 | 5.0 | 0.00 | 0.00 | 0.00 | 46 | 1007.0 |
| 20260503174542 | 49 | 19 | 1.0 | 2.0 | 0.00 | 0.00 | 0.00 | 46 | 1007.1 |
| 20260503174038 | 48 | 307 | 3.0 | 3.0 | 0.00 | 0.00 | 0.00 | 48 | 1007.3 |
| 20260503173533 | 47 | 49 | 2.0 | 3.0 | 0.00 | 0.00 | 0.00 | 49 | 1007.3 |
| 20260503173029 | 46 | 295 | 3.0 | 3.0 | 0.00 | 0.00 | 0.00 | 49 | 1007.3 |
| 20260503172527 | 46 | 324 | 5.0 | 6.0 | 0.00 | 0.00 | 0.00 | 50 | 1007.5 |
| 20260503172024 | 46 | 300 | 4.0 | 6.0 | 0.00 | 0.00 | 0.00 | 49 | 1007.3 |
| 20260503171520 | 47 | 296 | 3.0 | 3.0 | 0.00 | 0.00 | 0.00 | 48 | 1007.3 |
| 20260503171018 | 48 | 306 | 3.0 | 5.0 | 0.00 | 0.00 | 0.00 | 48 | 1007.4 |
| 20260503170514 | 47 | 331 | 3.0 | 3.0 | 0.00 | 0.00 | 0.00 | 51 | 1007.6 |
| 20260503150906 | 44 | 339 | 4.0 | 5.0 | 0.00 | 0.00 | 0.00 | 55 | 1007.8 |
| 20260503150403 | 44 | 288 | 3.0 | 5.0 | 0.00 | 0.00 | 0.00 | 56 | 1007.9 |
| 20260503131256 | 42 | 333 | 3.0 | 3.0 | 0.00 | 0.00 | 0.00 | 70 | 1008.2 |
| 20260503130754 | 42 | 317 | 3.0 | 3.0 | 0.00 | 0.00 | 0.00 | 70 | 1008.6 |
| 20260503130251 | 42 | 333 | 4.0 | 5.0 | 0.00 | 0.00 | 0.00 | 70 | 1008.5 |
| 20260503120217 | 39 | 344 | 3.0 | 6.0 | 0.00 | 0.00 | 0.00 | 80 | 1008.2 |
| 20260503110644 | 37 | 307 | 5.0 | 5.0 | 0.00 | 0.00 | 0.00 | 82 | 1007.9 |
| 20260503110142 | 37 | 314 | 3.0 | 5.0 | 0.00 | 0.00 | 0.00 | 82 | 1007.9 |
| 20260503100109 | 36 | 343 | 2.0 | 2.0 | 0.00 | 0.00 | 0.00 | 83 | 1007.4 |
| 20260503081458 | 37 | 346 | 2.0 | 2.0 | 0.00 | 0.00 | 0.00 | 82 | 1007.7 |
| 20260503080955 | 37 | 335 | 2.0 | 2.0 | 0.00 | 0.00 | 0.00 | 82 | 1007.8 |
| 20260503080451 | 37 | 309 | 3.0 | 3.0 | 0.00 | 0.00 | 0.00 | 82 | 1008.1 |
| 20260503072927 | 37 | 29 | 1.0 | 2.0 | 0.00 | 0.00 | 0.00 | 81 | 1008.1 |
| 20260503072425 | 37 | 322 | 2.0 | 2.0 | 0.00 | 0.00 | 0.00 | 81 | 1007.9 |
| 20260503071922 | 37 | 307 | 2.0 | 2.0 | 0.00 | 0.00 | 0.00 | 81 | 1007.9 |
| 20260503071419 | 37 | 312 | 2.0 | 2.0 | 0.00 | 0.00 | 0.00 | 81 | 1008.0 |
| 20260503070915 | 36 | 306 | 2.0 | 3.0 | 0.00 | 0.00 | 0.00 | 82 | 1008.1 |
| 20260503070412 | 36 | 298 | 3.0 | 3.0 | 0.00 | 0.00 | 0.00 | 82 | 1008.1 |